FW3942 Weather Reports


Display with metric or nautical units.
time (UTC)temp
F
wind
direction
speed
MPH
gust
MPH
rain 1hr
in
rain 24hr
in
rain mn
in
humidity
%
barometer
mb
20260508011616 47 232 2.0 3.0 0.09 0.90 0.90 95 1002.6
20260508010104 46 232 1.0 4.0 0.08 0.87 0.87 95 1002.4
20260508004558 47 201 3.0 5.0 0.08 0.86 0.86 95 1002.6
20260508003058 46 191 2.0 6.0 0.07 0.83 0.83 95 1002.5
20260508001557 46 214 3.0 7.0 0.06 0.81 0.81 95 1002.6
20260508000116 46 197 4.0 7.0 0.04 0.80 0.80 94 1002.7
20260507234556 46 188 2.0 12.0 0.02 0.78 0.78 95 1002.4
20260507233054 45 229 7.0 17.0 0.01 0.76 0.76 94 1002.2
20260507231558 46 285 12.0 18.0 0.00 0.76 0.76 91 1001.7
20260507230049 54 268 15.0 22.0 0.00 0.76 0.76 84 1001.5
20260507224551 56 194 3.0 7.0 0.00 0.76 0.76 88 1000.8
20260507223046 56 166 7.0 9.0 0.00 0.76 0.76 88 1000.9
20260507221545 56 158 6.0 10.0 0.00 0.76 0.76 87 1000.9
20260507220045 56 174 6.0 12.0 0.00 0.76 0.76 87 1000.6
20260507214547 56 170 7.0 15.0 0.00 0.76 0.76 87 1000.6
20260507213044 57 170 9.0 16.0 0.00 0.76 0.76 86 1000.6
20260507211551 57 143 13.0 19.0 0.00 0.76 0.76 87 1000.5
20260507210047 56 149 9.0 14.0 0.02 0.76 0.76 88 1000.5
20260507204542 56 145 3.0 12.0 0.06 0.76 0.76 89 1000.5
20260507203042 56 175 10.0 22.0 0.10 0.76 0.76 89 1000.3
20260507201539 56 153 11.0 21.0 0.15 0.76 0.76 89 1000.1
20260507200040 55 128 14.0 22.0 0.19 0.74 0.74 91 999.8
20260507194537 55 137 14.0 22.0 0.21 0.70 0.70 91 1000.8
20260507193030 55 134 11.0 17.0 0.24 0.65 0.65 91 1001.9
20260507191529 55 167 8.0 14.0 0.28 0.61 0.61 91 1002.7
20260507190030 56 161 9.0 20.0 0.31 0.55 0.55 91 1002.5
20260507184525 56 166 13.0 22.0 0.34 0.49 0.49 92 1003.0
20260507183025 55 177 11.0 23.0 0.34 0.41 0.41 92 1002.9
20260507181525 55 200 8.0 15.0 0.28 0.32 0.32 93 1003.4
20260507180024 55 204 11.0 19.0 0.22 0.24 0.24 93 1003.6
20260507174540 54 203 13.0 24.0 0.14 0.15 0.15 92 1003.8
20260507173022 57 183 20.0 26.0 0.07 0.07 0.07 89 1003.2
20260507171518 58 206 13.0 28.0 0.03 0.03 0.03 87 1002.8
20260507170013 59 194 13.0 24.0 0.02 0.02 0.02 86 1002.7
20260507164511 60 201 21.0 29.0 0.01 0.01 0.01 81 1002.7
20260507163011 62 197 19.0 35.0 0.00 0.00 0.00 78 1003.0
20260507161511 62 208 13.0 34.0 0.00 0.00 0.00 79 1003.3
20260507160008 61 196 21.0 38.0 0.00 0.00 0.00 77 1003.4
20260507154508 62 205 24.0 42.0 0.00 0.00 0.00 76 1003.5
20260507153002 62 201 21.0 38.0 0.00 0.00 0.00 74 1004.1
20260507151602 62 194 22.0 43.0 0.00 0.00 0.00 75 1004.5
20260507150059 62 201 28.0 46.0 0.00 0.00 0.00 75 1004.7
20260507144558 62 209 19.0 36.0 0.00 0.00 0.00 76 1004.9
20260507143108 62 184 21.0 40.0 0.00 0.00 0.00 76 1004.8
20260507141610 61 188 22.0 36.0 0.00 0.00 0.00 79 1005.3
20260507140110 61 195 25.0 38.0 0.00 0.00 0.00 80 1005.4
20260507134551 61 184 24.0 39.0 0.00 0.00 0.00 78 1005.6
20260507133056 61 167 25.0 40.0 0.00 0.00 0.00 79 1005.5
20260507131613 61 194 17.0 39.0 0.00 0.00 0.00 80 1005.8
20260507130046 62 197 27.0 47.0 0.00 0.00 0.00 78 1006.3
20260507124551 62 148 22.0 46.0 0.00 0.00 0.00 80 1006.1
20260507123044 61 174 31.0 47.0 0.00 0.00 0.00 79 1006.3
20260507121538 61 165 23.0 36.0 0.00 0.00 0.00 80 1006.2
20260507120040 60 184 24.0 39.0 0.00 0.00 0.00 82 1006.5
20260507114534 60 148 27.0 39.0 0.00 0.00 0.00 82 1006.8
20260507113059 60 176 26.0 47.0 0.00 0.00 0.00 80 1006.9
20260507111532 61 132 23.0 43.0 0.00 0.00 0.00 81 1007.5
20260507110031 60 184 20.0 34.0 0.00 0.00 0.00 81 1007.4
20260507104524 60 194 22.0 32.0 0.00 0.00 0.00 80 1007.8
20260507103023 60 165 21.0 35.0 0.00 0.00 0.00 80 1007.9
20260507101525 60 169 24.0 39.0 0.00 0.00 0.00 81 1008.1
20260507100031 60 207 22.0 32.0 0.00 0.00 0.00 82 1008.4
20260507094515 60 205 12.0 26.0 0.00 0.00 0.00 81 1008.5
20260507093014 59 192 16.0 31.0 0.00 0.00 0.00 81 1008.9
20260507091511 59 188 17.0 29.0 0.00 0.00 0.00 84 1009.3
20260507090008 59 194 18.0 24.0 0.00 0.00 0.00 83 1009.6
20260507084511 60 224 11.0 28.0 0.00 0.00 0.00 82 1009.7
20260507083012 60 186 13.0 24.0 0.00 0.00 0.00 82 1010.1
20260507081503 59 153 6.0 21.0 0.00 0.00 0.00 82 1009.3
20260507080107 60 208 9.0 24.0 0.00 0.00 0.00 82 1010.0
20260507074558 60 180 14.0 22.0 0.00 0.00 0.00 81 1010.3
20260507073058 60 163 14.0 22.0 0.00 0.00 0.00 81 1010.5
20260507071553 60 184 12.0 28.0 0.00 0.00 0.00 80 1011.2
20260507070103 60 178 12.0 27.0 0.00 0.00 0.00 79 1011.3
20260507064549 59 185 14.0 22.0 0.00 0.00 0.00 79 1011.3
20260507063052 60 179 11.0 23.0 0.00 0.00 0.00 78 1011.3
20260507061544 60 155 11.0 20.0 0.00 0.00 0.00 77 1011.4
20260507060044 61 157 20.0 30.0 0.00 0.00 0.00 75 1011.5
20260507054541 61 152 17.0 28.0 0.00 0.00 0.00 72 1011.6
20260507053035 60 194 16.0 25.0 0.00 0.00 0.00 67 1012.2
20260507051532 59 208 7.0 20.0 0.00 0.00 0.00 70 1012.8
20260507050049 59 193 12.0 23.0 0.00 0.00 0.00 72 1013.1
20260507044528 59 170 13.0 24.0 0.00 0.00 0.00 72 1013.2
20260507043024 59 158 15.0 25.0 0.00 0.00 0.00 73 1013.6
20260507041521 60 195 12.0 22.0 0.00 0.00 0.00 72 1014.0
20260507040021 60 161 11.0 20.0 0.00 0.00 0.00 72 1014.3
20260507034516 60 197 15.0 26.0 0.00 0.00 0.00 75 1014.4
20260507033019 60 179 14.0 27.0 0.00 0.00 0.00 74 1014.7
20260507031509 60 197 15.0 30.0 0.00 0.00 0.00 74 1014.8
20260507030007 61 185 15.0 29.0 0.00 0.00 0.00 73 1015.0
20260507024507 61 176 15.0 30.0 0.00 0.00 0.00 73 1015.2
20260507023005 61 221 15.0 30.0 0.00 0.00 0.00 72 1015.5
20260507021510 62 227 20.0 32.0 0.00 0.00 0.00 71 1015.6
20260507020004 61 219 20.0 36.0 0.00 0.00 0.00 71 1015.5
20260507014502 61 194 18.0 35.0 0.00 0.00 0.00 72 1015.4
20260507013004 61 190 21.0 35.0 0.00 0.00 0.00 72 1015.5